This demonstration page uses our WeatherBlox Daily Observations layout. Learn more.

Left ArrowRight Arrow

39.08367, -84.50855

Hourly Observations for August 5, 2017

Temp ( °F °C ) Dew Point ( °F °C ) Humidity (%) Winds ( mph kmh ) Pressure ( in mb ) Visibility ( mi km ) Precip ( " mm )
12:53 am 00:53 Clear 62 16.7 53 11.7 73 73 W 8 13 30.05 1018 10 16.0934 N/A
1:53 am 01:53 Clear 61 16.1 54 12.2 78 78 W 7 11 30.04 1017 10 16.0934 N/A
2:53 am 02:53 Clear 60 15.6 54 12.2 80 80 VRB 3 6 30.04 1017 10 16.0934 N/A
3:53 am 03:53 Clear 58 14.4 54 12.2 87 87 VRB 3 6 30.06 1018 10 16.0934 N/A
4:53 am 04:53 Clear 54 12.2 53 11.7 97 97 S 7 11 30.08 1019 10 16.0934 N/A
5:53 am 05:53 Clear 56 13.3 54 12.2 93 93 S 3 6 30.09 1019 10 16.0934 N/A
6:53 am 06:53 Sunny 53 11.7 53 11.7 100 100 N N/A 30.11 1020 10 16.0934 N/A
7:53 am 07:53 Sunny 58 14.4 56 13.3 93 93 N N/A 30.12 1020 10 16.0934 N/A
8:53 am 08:53 Sunny 63 17.2 56 13.3 78 78 SW 3 6 30.14 1021 10 16.0934 N/A
9:53 am 09:53 Sunny 67 19.4 57 13.9 71 71 S 6 9 30.13 1020 10 16.0934 N/A
10:53 am 10:53 Sunny 70 21.1 57 13.9 64 64 SSW 8 13 30.12 1020 10 16.0934 N/A
11:53 am 11:53 Mostly Sunny 73 22.8 59 15 62 62 S 7 11 30.11 1020 10 16.0934 N/A
12:53 pm 12:53 Sunny 75 23.9 55 12.8 50 50 SSW 9 15 30.11 1020 10 16.0934 N/A
1:53 pm 13:53 Mostly Sunny 77 25 57 13.9 50 50 WNW 8 13 30.11 1020 10 16.0934 N/A
2:53 pm 14:53 Mostly Sunny 77 25 57 13.9 50 50 undefined N/A 30.09 1019 10 16.0934 N/A
3:53 pm 15:53 Mostly Cloudy 79 26.1 57 13.9 47 47 VRB 3 6 30.09 1019 10 16.0934 N/A
4:53 pm 16:53 Cloudy 77 25 54 12.2 45 45 SW 6 9 30.09 1019 10 16.0934 N/A
5:53 pm 17:53 Partly Cloudy 77 25 56 13.3 48 48 WSW 12 19 30.09 1019 10 16.0934 N/A
6:53 pm 18:53 Mostly Sunny 75 23.9 56 13.3 52 52 WSW 7 11 30.09 1019 10 16.0934 N/A
7:53 pm 19:53 Mostly Sunny 72 22.2 56 13.3 57 57 SW 8 13 30.08 1019 10 16.0934 N/A
8:53 pm 20:53 Clear 69 20.6 59 15 70 70 S 3 6 30.08 1019 10 16.0934 N/A
9:53 pm 21:53 Clear 65 18.3 60 15.6 84 84 N N/A 30.1 1019 10 16.0934 N/A
10:53 pm 22:53 Clear 63 17.2 60 15.6 90 90 N N/A 30.1 1019 10 16.0934 N/A
11:53 pm 23:53 Clear 63 17.2 60 15.6 90 90 N N/A 30.09 1019 10 16.0934 N/A

Powered by AerisWeather